Powrót do katalogu

STARLINK-11547

AktywnyŁącznośćVLEO
NORAD 62587·PAYLOAD·🇺🇸 United States

Wystrzelony Jan 13, 2025 z Cape Canaveral Space Force Station

Loading…

Następne Przeloty (najbliższe 24 godziny)

TLE

ŚwieżeSource: CelesTrak SupGP

Epoka: Sep 15, 2026, 03:25 UTC

1 62587C 25008A   26258.14284722 -.00063850  00000+0 -49565-3 0  2589
2 62587  43.0011  64.4091 0001684 268.8627 248.7074 15.70882769    17

Śledź STARLINK-11547 w czasie rzeczywistym z AllMySat

Download on the App Store